Regional Weather Roundup
Issued by NWS

Home | Current Version | Previous Version | Graphics & Text | Print | Product List | Glossary On
Versions: 1 2 3 4 5 6 7 8 9 10 11 12 13 14 15 16 17 18 19 20 21 22 23 24 25 26 27 28 29 30 31 32 33 34 35 36 37 38 39 40 41 42 43 44 45 46 47 48 49 50
000
ASUS43 KDTX 251510
RWRMI
MICHIGAN HOURLY REGIONAL WEATHER ROUNDUP
NATIONAL WEATHER SERVICE DETROIT/PONTIAC MI
1000 AM EST TUE NOV 25 2014

NOTE: "FAIR" INDICATES FEW OR NO CLOUDS BELOW 12,000 FEET WITH NO
SIGNIFICANT WEATHER AND/OR OBSTRUCTION TO VISIBILITY.

MIZ047>049-052>055-059>063-066>070-074>076-081>083-251600-
SOUTHEAST LOWER MICHIGAN

CITY           SKY/WX    TMP DP  RH WIND       PRES   REMARKS
ADRIAN         CLOUDY    30  23  75 W15G26    29.98R
ALMA           LGT SNOW  30  27  90 W9G16     29.90R
ANN ARBOR      CLOUDY    30  22  72 W18       29.95R
BAD AXE        CLOUDY    31  28  88 W18G24    29.84R
DETROIT CITY   CLOUDY    33  23  66 W15G26    29.94R
DETROIT        CLOUDY    31  24  75 SW20G25   29.96R
FLINT          CLOUDY    31  24  75 SW20G25   29.90R
GROSSE ILE     CLOUDY    32  25  74 SW18G28   29.96R
HILLSDALE      CLOUDY    29  24  84 W15G21    29.95R
HOWELL         CLOUDY    29  23  79 SW16G26   29.92R

CITY           SKY/WX    TMP DP  RH WIND       PRES   REMARKS
JACKSON        CLOUDY    28  22  78 W12G23    29.95R
LAMBERTVILLE   CLOUDY    34  27  75 SW12G22   29.98R
LANSING        LGTSLEET  29  23  78 SW17G26   29.93R
LAPEER         NOT AVBL
MASON          CLOUDY    29  24  80 W12G17    29.93R
MONROE         CLOUDY    32  27  80 SW14      29.96R
MT. CLEMENS    CLOUDY    32  26  80 W13G22    29.90R
PONTIAC        CLOUDY    30  21  69 W17G25    29.90R
PORT HOPE        N/A     33  24  69 W15G24    29.80R
PORT HURON     CLOUDY    30  27  86 SW8G20    29.91R
TRI CITIES     CLOUDY    32  26  78 SW14      29.87R
YPSILANTI      CLOUDY    34  23  64 W21G28    29.95R
$$
MIZ043>046-050>051-056>058-064>065-071>073-077>080-251600-
SOUTHWEST LOWER MICHIGAN

CITY           SKY/WX    TMP DP  RH WIND       PRES   REMARKS
BATTLE CREEK   CLOUDY    29  21  72 SW15      29.96R
BENTON HARBOR  CLOUDY    27  22  81 W18       30.02R
BIG RAPIDS     LGT SNOW  29  28  96 W7        29.87R
COLDWATER      CLOUDY    29  25  82 W12       29.97R
HOLLAND        LGT SNOW  31  25  78 W15       29.97R
GRAND RAPIDS   LGT SNOW  29  26  89 SW14      29.93R VSB 3/4
KALAMAZOO      CLOUDY    27  22  81 SW10      29.98R
MARSHALL       CLOUDY    27  21  76 SW14G22   29.95R
MUSKEGON       LGT SNOW  31  24  75 W15       29.95R
$$
MIZ016>042-251600-
NORTHERN LOWER MICHIGAN

CITY           SKY/WX    TMP DP  RH WIND       PRES   REMARKS
ALPENA         LGT SNOW  28  26  92 W8        29.75R FOG
BEAVER ISLAND  LGT SNOW  29  26  88 W8        29.80R
BELLAIRE       SNOW      29  27  91 NW5       29.82R VSB 1/4
CADILLAC       LGT SNOW  27  24  87 W10       29.81R
CHARLEVOIX     LGT SNOW  28  26  92 NW17      29.82R
FRANKFORT      LGT SNOW  29  27  90 NW12G18   29.87R
GAYLORD        LGT SNOW  26  22  84 W13G20    29.75R FOG
GRAYLING       LGT SNOW  28  27  94 W6        29.79R VSB 3/4
HARBOR SPRINGS LGT SNOW  28  24  88 W8        29.78R
HOUGHTON LAKE  CLOUDY    28  23  81 W15G24    29.81R
MANISTEE       CLOUDY    28  25  86 NW15      29.89R
OSCODA         PTSUNNY   31  28  90 SW17      29.78R
PELLSTON       SNOW      26  24  92 NW9       29.78R VSB 1/2
TRAVERSE CITY  LGT SNOW  29  25  85 W12       29.83R FOG
$$
MIZ007>008-015-251600-
EASTERN UPPER MICHIGAN

CITY           SKY/WX    TMP DP  RH WIND       PRES   REMARKS
KINROSS        CLOUDY    23  21  93 N6        29.74R VSB 1
MACKINAC ISLAN LGT SNOW  26  25  95 NW15      29.75R
NEWBERRY       LGT SNOW  24  23  94 NW3       29.77R VSB 3/4
S. S. MARIE    LGT SNOW  23  18  81 N6        29.72F VSB 3/4
$$
MIZ004>006-011>014-085-251600-
CENTRAL UPPER MICHIGAN

CITY           SKY/WX    TMP DP  RH WIND       PRES   REMARKS
MANISTIQUE     LGT SNOW  26  24  89 NW9       29.81R
ESCANABA       CLOUDY    25  18  74 W14       29.86R
MENOMINEE      CLOUDY    25  18  74 NW6       29.91R
SAWYER-GWINN   LGT SNOW  21  18  86 NW10G17   29.83R
$$
MIZ001>003-009>011-084-251600-
WESTERN UPPER MICHIGAN

CITY           SKY/WX    TMP DP  RH WIND       PRES   REMARKS
IRON MOUNTAIN  LGT SNOW  21  14  74 NW12      29.87R
HOUGHTON       LGT SNOW  20  14  77 NW12      29.86R
COPPER HARBOR    N/A     25  18  74 N18       29.86R
IRONWOOD       CLOUDY    16  12  86 W13       29.89R
$$

ABBREVIATIONS USED IN REMARKS
   TC - TEMPERATURE IN CELSIUS
  WCI - WIND CHILL INDEX
   HX - HEAT INDEX
  VSB - VISIBILITY




USA.gov is the U.S. government's official web portal to all federal, state and local government web resources and services.